User: anonymous   Login
Location: Raven Hill Discovery Center
(45.1336°N, 85.0553°W)
Time: 21:21:58
(UTC-05:00)
Language:

Cosmos 1470 - Orbit

View from above orbital plane
View from above orbital plane
View from above satellite
View from above satellite

Ground track
Ground track

The orbit data is extracted from the following two-line orbital elements,

1 14147U 83061A   14353.12825845  .00004641  00000-0  29954-3 0  1603
2 14147 082.5047 211.8515 0014604 157.0151 203.1734 15.07963317467350
Epoch (UTC): 19 December 2014 03:04:41
Eccentricity: 0.0014604
inclination: 82.5047°
perigee height: 532 km
apogee height: 552 km
right ascension of ascending node: 211.8515°
argument of perigee: 157.0151°
revolutions per day: 15.07963317
mean anomaly at epoch: 203.1734°
orbit number at epoch: 46735

The dashed part of the orbit path shows where the satellite is in the earth's shadow,  

DLR